Regional Weather Roundup
Issued by NWS Sioux Falls, SD

Home | Current Version | Previous Version | Graphics & Text | Print | Product List | Glossary Off
Versions: 1 2 3 4 5 6 7 8 9 10 11 12 13 14 15 16 17 18 19 20 21 22 23 24 25 26 27 28 29 30 31 32 33 34 35 36 37 38 39 40 41 42 43 44 45 46 47 48 49 50

737
ASUS43 KFSD 111302
RWRFSD

WEATHER ROUNDUP FOR SE SOUTH DAKOTA/SW MINNESOTA/NW IOWA
NATIONAL WEATHER SERVICE SIOUX FALLS SD
700 AM CST THU FEB 11 2016

NOTE: "FAIR" INDICATES FEW OR NO CLOUDS BELOW 12,000 FEET WITH NO
SIGNIFICANT WEATHER AND OR OBSTRUCTIONS TO VISIBILITY.


SDZ038>040-050-052>070-111400-
SOUTHEAST SOUTH DAKOTA

CITY           SKY/WX    TMP DP  RH WIND       PRES   REMARKS
BROOKINGS      CLOUDY    12   7  80 S8        30.22S WCI   0
CHAMBERLAIN    NOT AVBL
HURON          CLOUDY    17  12  80 S8        30.22F WCI   7
MADISON        CLOUDY    10   9  92 S9        30.22S WCI  -2
MITCHELL       CLOUDY    18  13  80 S8        30.25R WCI   8
SIOUX FALLS    CLOUDY    13   5  70 S7        30.24F WCI   3
WINNER         CLOUDY    27  22  81 SE10      30.13F WCI  17
YANKTON        CLOUDY    16  10  79 SE5       30.26F WCI   9
$$

MNZ071-072-080-081-089-090-097-098-111400-
SOUTHWEST MINNESOTA

CITY           SKY/WX    TMP DP  RH WIND       PRES   REMARKS
FAIRMONT       CLOUDY    -2  -8  78 W5        30.28S WCI -12
JACKSON        CLOUDY    -2  -8  78 CALM      30.27R
LUVERNE        CLOUDY    14   7  73 SE3       30.27R
MARSHALL       CLOUDY    -2  -6  83 SW5       30.28F WCI -12
MONTEVIDEO     CLOUDY     3  -2  78 CALM      30.30S
PIPESTONE      CLOUDY    12   3  67 S5        30.22S WCI   4
REDWOOD FALLS  CLOUDY     0  -5  79 CALM      30.30S
TRACY          PTCLDY     1  -3  85 CALM      30.26F
WINDOM         CLOUDY    -8 -11  84 CALM      30.27R
WORTHINGTON    CLOUDY     9   1  72 SE6       30.26S WCI  -1
$$

IAZ001>003-012>014-020>022-031-032-NEZ013-014-SDZ071-111400-
NORTHWEST IOWA

CITY           SKY/WX    TMP DP  RH WIND       PRES   REMARKS
ESTHERVILLE    CLOUDY    -5  -8  87 CALM      30.28S
SIOUX CITY     CLOUDY    17   9  70 E6        30.30S WCI   9
SPENCER        CLOUDY    10   2  69 E7        30.28R WCI  -1
STORM LAKE     CLOUDY    12   7  79 SE6       30.27R WCI   3
$$

ABBREVIATIONS USED IN REMARKS
   TC - TEMPERATURE IN CELSIUS
  WCI - WIND CHILL INDEX
   HX - HEAT INDEX
  VSB - VISIBILITY





USA.gov is the U.S. government's official web portal to all federal, state and local government web resources and services.